| time (UTC) | temp C | wind direction | speed KPH | gust KPH | rain 1hr cm | rain 24hr cm | rain mn cm | humidity % | barometer mb |
| 20260504110508 | 10 | 172 | 4.8 | 9.7 | 0.00 | 0.00 | 0.00 | 69 | 1007.9 |
| 20260504100430 | 10 | 240 | 3.2 | 11.3 | 0.00 | 0.00 | 0.00 | 68 | 1008.0 |
| 20260504081823 | 11 | 218 | 3.2 | 3.2 | 0.00 | 0.00 | 0.00 | 66 | 1008.8 |
| 20260504081320 | 11 | 145 | 1.6 | 3.2 | 0.00 | 0.00 | 0.00 | 65 | 1009.0 |
| 20260504080816 | 10 | 242 | 3.2 | 4.8 | 0.00 | 0.00 | 0.00 | 66 | 1009.1 |
| 20260504080313 | 10 | 135 | 1.6 | 6.4 | 0.00 | 0.00 | 0.00 | 66 | 1009.1 |
| 20260504070240 | 11 | 209 | 4.8 | 6.4 | 0.00 | 0.00 | 0.00 | 63 | 1009.5 |
| 20260504060201 | 11 | 345 | 0.0 | 1.6 | 0.00 | 0.00 | 0.00 | 60 | 1010.3 |
| 20260504050629 | 11 | 146 | 0.0 | 6.4 | 0.00 | 0.00 | 0.00 | 63 | 1011.1 |
| 20260504050126 | 11 | 137 | 0.0 | 4.8 | 0.00 | 0.00 | 0.00 | 64 | 1011.2 |
| 20260504045623 | 11 | 141 | 0.0 | 0.0 | 0.00 | 0.00 | 0.00 | 64 | 1011.1 |
| 20260504045118 | 11 | 90 | 0.0 | 3.2 | 0.00 | 0.00 | 0.00 | 64 | 1011.2 |
| 20260504044616 | 10 | 153 | 0.0 | 3.2 | 0.00 | 0.00 | 0.00 | 65 | 1011.1 |
| 20260504044113 | 10 | 127 | 0.0 | 3.2 | 0.00 | 0.00 | 0.00 | 65 | 1011.3 |
| 20260504043610 | 10 | 178 | 3.2 | 3.2 | 0.00 | 0.00 | 0.00 | 66 | 1011.1 |
| 20260504043107 | 10 | 150 | 0.0 | 4.8 | 0.00 | 0.00 | 0.00 | 67 | 1011.4 |
| 20260504042604 | 10 | 168 | 0.0 | 1.6 | 0.00 | 0.00 | 0.00 | 67 | 1011.2 |
| 20260504042101 | 10 | 125 | 1.6 | 4.8 | 0.00 | 0.00 | 0.00 | 67 | 1011.3 |
| 20260504041556 | 10 | 131 | 0.0 | 1.6 | 0.00 | 0.00 | 0.00 | 67 | 1011.5 |
| 20260504041053 | 10 | 129 | 3.2 | 9.7 | 0.00 | 0.00 | 0.00 | 67 | 1011.4 |
| 20260504040550 | 10 | 242 | 1.6 | 9.7 | 0.00 | 0.00 | 0.00 | 68 | 1011.4 |
| 20260504040047 | 10 | 148 | 0.0 | 1.6 | 0.00 | 0.00 | 0.00 | 69 | 1011.4 |
| 20260504035544 | 10 | 212 | 3.2 | 3.2 | 0.00 | 0.00 | 0.00 | 69 | 1011.7 |
| 20260504035040 | 10 | 130 | 1.6 | 4.8 | 0.00 | 0.00 | 0.00 | 69 | 1011.7 |
| 20260504034538 | 10 | 151 | 1.6 | 9.7 | 0.00 | 0.00 | 0.00 | 69 | 1011.8 |
| 20260504034034 | 10 | 88 | 1.6 | 6.4 | 0.00 | 0.00 | 0.00 | 69 | 1011.5 |
| 20260504033533 | 10 | 190 | 8.0 | 9.7 | 0.00 | 0.00 | 0.00 | 70 | 1011.9 |
| 20260504033030 | 10 | 182 | 3.2 | 6.4 | 0.00 | 0.00 | 0.00 | 70 | 1011.9 |
| 20260504032527 | 10 | 110 | 0.0 | 3.2 | 0.00 | 0.00 | 0.00 | 70 | 1012.0 |
| 20260504032024 | 10 | 206 | 3.2 | 9.7 | 0.00 | 0.00 | 0.00 | 70 | 1011.9 |
| 20260504031520 | 10 | 208 | 3.2 | 3.2 | 0.00 | 0.00 | 0.00 | 70 | 1011.9 |
| 20260504031016 | 10 | 163 | 1.6 | 4.8 | 0.00 | 0.00 | 0.00 | 71 | 1012.1 |
| 20260504030514 | 10 | 227 | 4.8 | 4.8 | 0.00 | 0.00 | 0.00 | 71 | 1011.9 |
| 20260504030010 | 10 | 140 | 3.2 | 4.8 | 0.00 | 0.00 | 0.00 | 71 | 1012.1 |
| 20260504025507 | 10 | 118 | 1.6 | 3.2 | 0.00 | 0.00 | 0.00 | 71 | 1012.1 |
| 20260504025004 | 10 | 115 | 1.6 | 6.4 | 0.00 | 0.00 | 0.00 | 71 | 1012.1 |
| 20260504024500 | 10 | 176 | 4.8 | 6.4 | 0.00 | 0.00 | 0.00 | 72 | 1012.0 |
| 20260504023958 | 10 | 151 | 3.2 | 9.7 | 0.00 | 0.00 | 0.00 | 71 | 1012.1 |
| 20260504023454 | 10 | 146 | 4.8 | 9.7 | 0.00 | 0.00 | 0.00 | 72 | 1012.2 |
| 20260504022950 | 10 | 183 | 9.7 | 14.5 | 0.00 | 0.00 | 0.00 | 72 | 1012.3 |
| 20260504022446 | 10 | 93 | 1.6 | 3.2 | 0.00 | 0.00 | 0.00 | 72 | 1012.3 |
| 20260504021943 | 10 | 168 | 4.8 | 9.7 | 0.00 | 0.00 | 0.00 | 71 | 1012.2 |
| 20260504021441 | 10 | 159 | 3.2 | 9.7 | 0.00 | 0.00 | 0.00 | 72 | 1012.4 |
| 20260504020938 | 10 | 125 | 4.8 | 4.8 | 0.00 | 0.00 | 0.00 | 72 | 1012.1 |
| 20260504020434 | 10 | 244 | 4.8 | 6.4 | 0.00 | 0.00 | 0.00 | 71 | 1012.3 |
| 20260504015931 | 10 | 141 | 3.2 | 9.7 | 0.00 | 0.00 | 0.00 | 71 | 1012.5 |
| 20260504015427 | 10 | 160 | 6.4 | 6.4 | 0.00 | 0.00 | 0.00 | 71 | 1012.4 |
| 20260504014923 | 10 | 158 | 3.2 | 4.8 | 0.00 | 0.00 | 0.00 | 71 | 1012.5 |
| 20260504014419 | 10 | 235 | 3.2 | 12.9 | 0.00 | 0.00 | 0.00 | 71 | 1012.3 |
| 20260504013916 | 10 | 174 | 4.8 | 6.4 | 0.00 | 0.00 | 0.00 | 71 | 1012.2 |
| 20260504013415 | 10 | 126 | 0.0 | 1.6 | 0.00 | 0.00 | 0.00 | 71 | 1012.6 |
| 20260504012910 | 10 | 195 | 0.0 | 1.6 | 0.00 | 0.00 | 0.00 | 71 | 1012.2 |
| 20260504012408 | 10 | 114 | 0.0 | 6.4 | 0.00 | 0.00 | 0.00 | 70 | 1012.3 |
| 20260504011905 | 10 | 149 | 3.2 | 4.8 | 0.00 | 0.00 | 0.00 | 70 | 1012.2 |
| 20260504011402 | 10 | 154 | 1.6 | 4.8 | 0.00 | 0.00 | 0.00 | 70 | 1012.3 |
| 20260504010858 | 10 | 145 | 3.2 | 4.8 | 0.00 | 0.00 | 0.00 | 70 | 1012.5 |
| 20260504010354 | 10 | 200 | 1.6 | 4.8 | 0.00 | 0.00 | 0.00 | 69 | 1012.6 |
| 20260504005851 | 10 | 149 | 3.2 | 4.8 | 0.00 | 0.00 | 0.00 | 69 | 1012.7 |
| 20260504005348 | 10 | 114 | 4.8 | 6.4 | 0.00 | 0.00 | 0.00 | 69 | 1012.6 |
| 20260504004845 | 10 | 191 | 3.2 | 11.3 | 0.00 | 0.00 | 0.00 | 69 | 1012.6 |
| 20260504004343 | 10 | 178 | 3.2 | 4.8 | 0.00 | 0.00 | 0.00 | 69 | 1012.8 |
| 20260504003839 | 10 | 129 | 4.8 | 6.4 | 0.00 | 0.00 | 0.00 | 68 | 1012.6 |
| 20260504003336 | 10 | 180 | 1.6 | 6.4 | 0.00 | 0.00 | 0.00 | 68 | 1012.5 |
| 20260504002833 | 10 | 153 | 3.2 | 6.4 | 0.00 | 0.00 | 0.00 | 67 | 1012.7 |
| 20260504002329 | 11 | 172 | 1.6 | 3.2 | 0.00 | 0.00 | 0.00 | 67 | 1012.6 |
| 20260504001827 | 11 | 158 | 1.6 | 3.2 | 0.00 | 0.00 | 0.00 | 66 | 1012.6 |
| 20260504001324 | 11 | 158 | 3.2 | 4.8 | 0.00 | 0.00 | 0.00 | 66 | 1012.8 |
| 20260504000821 | 11 | 162 | 3.2 | 4.8 | 0.00 | 0.00 | 0.00 | 65 | 1012.6 |
| 20260504000318 | 11 | 185 | 1.6 | 4.8 | 0.00 | 0.00 | 0.00 | 65 | 1012.8 |
| 20260503235816 | 11 | 213 | 1.6 | 1.6 | 0.00 | 0.00 | 0.00 | 64 | 1012.7 |
| 20260503235313 | 11 | 153 | 8.0 | 11.3 | 0.00 | 0.00 | 0.00 | 63 | 1012.8 |
| 20260503234810 | 11 | 170 | 6.4 | 9.7 | 0.00 | 0.00 | 0.00 | 63 | 1013.0 |
| 20260503234308 | 11 | 174 | 3.2 | 6.4 | 0.00 | 0.00 | 0.00 | 63 | 1012.9 |
| 20260503233806 | 11 | 44 | 1.6 | 4.8 | 0.00 | 0.00 | 0.00 | 63 | 1013.0 |
| 20260503233301 | 11 | 234 | 0.0 | 12.9 | 0.00 | 0.00 | 0.00 | 62 | 1013.3 |
| 20260503232758 | 11 | 302 | 6.4 | 14.5 | 0.00 | 0.00 | 0.00 | 61 | 1013.1 |
| 20260503232255 | 11 | 153 | 3.2 | 9.7 | 0.00 | 0.00 | 0.00 | 60 | 1013.4 |
| 20260503231753 | 11 | 159 | 4.8 | 17.7 | 0.00 | 0.00 | 0.00 | 60 | 1013.2 |
| 20260503231250 | 11 | 290 | 6.4 | 16.1 | 0.00 | 0.00 | 0.00 | 61 | 1013.0 |
| 20260503230746 | 11 | 173 | 8.0 | 9.7 | 0.00 | 0.00 | 0.00 | 60 | 1013.2 |
| 20260503230244 | 12 | 263 | 8.0 | 20.9 | 0.00 | 0.00 | 0.00 | 59 | 1013.3 |
| 20260503225741 | 12 | 260 | 8.0 | 11.3 | 0.00 | 0.00 | 0.00 | 60 | 1013.3 |
| 20260503225241 | 12 | 222 | 3.2 | 4.8 | 0.00 | 0.00 | 0.00 | 60 | 1013.4 |
| 20260503224738 | 12 | 310 | 4.8 | 9.7 | 0.00 | 0.00 | 0.00 | 58 | 1013.4 |
| 20260503224236 | 12 | 93 | 4.8 | 20.9 | 0.00 | 0.00 | 0.00 | 59 | 1013.2 |
| 20260503223733 | 13 | 223 | 9.7 | 16.1 | 0.00 | 0.00 | 0.00 | 57 | 1013.4 |
| 20260503223231 | 13 | 199 | 3.2 | 16.1 | 0.00 | 0.00 | 0.00 | 56 | 1013.5 |
| 20260503222727 | 13 | 288 | 14.5 | 29.0 | 0.00 | 0.00 | 0.00 | 56 | 1013.4 |
| 20260503222225 | 13 | 287 | 9.7 | 16.1 | 0.00 | 0.00 | 0.00 | 58 | 1013.4 |
| 20260503221723 | 13 | 215 | 6.4 | 14.5 | 0.00 | 0.00 | 0.00 | 57 | 1013.3 |
| 20260503221221 | 14 | 196 | 12.9 | 29.0 | 0.00 | 0.00 | 0.00 | 54 | 1013.0 |
| 20260503220717 | 15 | 273 | 6.4 | 17.7 | 0.00 | 0.00 | 0.00 | 37 | 1013.1 |
| 20260503220214 | 15 | 170 | 14.5 | 20.9 | 0.00 | 0.00 | 0.00 | 38 | 1012.8 |
| 20260503215710 | 15 | 238 | 4.8 | 11.3 | 0.00 | 0.00 | 0.00 | 37 | 1012.9 |
| 20260503215208 | 16 | 166 | 9.7 | 17.7 | 0.00 | 0.00 | 0.00 | 36 | 1012.9 |
| 20260503214706 | 16 | 18 | 6.4 | 17.7 | 0.00 | 0.00 | 0.00 | 37 | 1012.8 |
| 20260503214202 | 16 | 155 | 9.7 | 16.1 | 0.00 | 0.00 | 0.00 | 36 | 1012.9 |
| 20260503213701 | 16 | 232 | 6.4 | 11.3 | 0.00 | 0.00 | 0.00 | 36 | 1013.0 |
| 20260503213157 | 16 | 140 | 12.9 | 22.5 | 0.00 | 0.00 | 0.00 | 36 | 1013.0 |
| 20260503212654 | 16 | 297 | 4.8 | 17.7 | 0.00 | 0.00 | 0.00 | 37 | 1013.0 |
| 20260503212152 | 16 | 211 | 8.0 | 12.9 | 0.00 | 0.00 | 0.00 | 37 | 1012.8 |
| 20260503211650 | 16 | 231 | 9.7 | 22.5 | 0.00 | 0.00 | 0.00 | 37 | 1012.8 |
| 20260503211144 | 16 | 239 | 6.4 | 11.3 | 0.00 | 0.00 | 0.00 | 37 | 1013.1 |
| 20260503210641 | 16 | 232 | 8.0 | 30.6 | 0.00 | 0.00 | 0.00 | 37 | 1013.1 |
| 20260503210138 | 16 | 311 | 6.4 | 16.1 | 0.00 | 0.00 | 0.00 | 36 | 1013.1 |
| 20260503205634 | 16 | 289 | 6.4 | 33.8 | 0.00 | 0.00 | 0.00 | 36 | 1013.1 |
| 20260503205130 | 16 | 245 | 9.7 | 12.9 | 0.00 | 0.00 | 0.00 | 36 | 1013.2 |
| 20260503204621 | 16 | 232 | 14.5 | 17.7 | 0.00 | 0.00 | 0.00 | 36 | 1013.3 |
| 20260503204119 | 16 | 232 | 6.4 | 17.7 | 0.00 | 0.00 | 0.00 | 36 | 1013.2 |
| 20260503203616 | 16 | 226 | 14.5 | 17.7 | 0.00 | 0.00 | 0.00 | 36 | 1013.4 |
| 20260503203113 | 16 | 274 | 6.4 | 29.0 | 0.00 | 0.00 | 0.00 | 35 | 1013.3 |
| 20260503202610 | 16 | 357 | 9.7 | 16.1 | 0.00 | 0.00 | 0.00 | 34 | 1013.5 |
| 20260503202108 | 16 | 236 | 9.7 | 22.5 | 0.00 | 0.00 | 0.00 | 34 | 1013.7 |
| 20260503201606 | 16 | 310 | 3.2 | 11.3 | 0.00 | 0.00 | 0.00 | 34 | 1013.3 |
| 20260503201103 | 16 | 253 | 14.5 | 22.5 | 0.00 | 0.00 | 0.00 | 33 | 1013.7 |
| 20260503200559 | 16 | 156 | 11.3 | 22.5 | 0.00 | 0.00 | 0.00 | 36 | 1013.6 |
| 20260503200056 | 16 | 61 | 11.3 | 27.4 | 0.00 | 0.00 | 0.00 | 35 | 1013.8 |
| 20260503195548 | 16 | 266 | 8.0 | 16.1 | 0.00 | 0.00 | 0.00 | 36 | 1013.8 |
| 20260503195044 | 16 | 174 | 8.0 | 17.7 | 0.00 | 0.00 | 0.00 | 35 | 1013.6 |
| 20260503194542 | 17 | 3 | 12.9 | 24.1 | 0.00 | 0.00 | 0.00 | 34 | 1013.8 |
| 20260503194041 | 17 | 261 | 9.7 | 20.9 | 0.00 | 0.00 | 0.00 | 34 | 1014.1 |
| 20260503193539 | 16 | 148 | 9.7 | 16.1 | 0.00 | 0.00 | 0.00 | 34 | 1013.9 |
| 20260503193039 | 16 | 253 | 12.9 | 24.1 | 0.00 | 0.00 | 0.00 | 34 | 1014.1 |
| 20260503192536 | 16 | 232 | 9.7 | 16.1 | 0.00 | 0.00 | 0.00 | 34 | 1014.1 |
| 20260503192031 | 16 | 239 | 12.9 | 24.1 | 0.00 | 0.00 | 0.00 | 35 | 1014.1 |
| 20260503191528 | 16 | 188 | 9.7 | 20.9 | 0.00 | 0.00 | 0.00 | 35 | 1014.3 |
| 20260503191025 | 16 | 266 | 8.0 | 22.5 | 0.00 | 0.00 | 0.00 | 34 | 1014.3 |
| 20260503190522 | 16 | 252 | 12.9 | 20.9 | 0.00 | 0.00 | 0.00 | 34 | 1014.4 |
| 20260503190019 | 16 | 222 | 6.4 | 16.1 | 0.00 | 0.00 | 0.00 | 35 | 1014.5 |
| 20260503185515 | 16 | 186 | 6.4 | 14.5 | 0.00 | 0.00 | 0.00 | 37 | 1014.5 |
| 20260503185015 | 16 | 283 | 8.0 | 35.4 | 0.00 | 0.00 | 0.00 | 36 | 1014.7 |
| 20260503184512 | 16 | 189 | 9.7 | 20.9 | 0.00 | 0.00 | 0.00 | 36 | 1014.8 |
| 20260503184008 | 16 | 302 | 4.8 | 16.1 | 0.00 | 0.00 | 0.00 | 35 | 1014.9 |
| 20260503183505 | 16 | 235 | 9.7 | 20.9 | 0.00 | 0.00 | 0.00 | 35 | 1014.8 |
| 20260503183001 | 16 | 177 | 4.8 | 12.9 | 0.00 | 0.00 | 0.00 | 34 | 1014.9 |
| 20260503182500 | 16 | 262 | 12.9 | 20.9 | 0.00 | 0.00 | 0.00 | 34 | 1015.1 |
| 20260503181958 | 16 | 296 | 11.3 | 16.1 | 0.00 | 0.00 | 0.00 | 36 | 1015.1 |
| 20260503181455 | 16 | 301 | 3.2 | 20.9 | 0.00 | 0.00 | 0.00 | 36 | 1015.1 |
| 20260503180950 | 16 | 219 | 9.7 | 22.5 | 0.00 | 0.00 | 0.00 | 36 | 1015.2 |
| 20260503180449 | 16 | 203 | 11.3 | 17.7 | 0.00 | 0.00 | 0.00 | 34 | 1015.1 |
| 20260503175945 | 16 | 301 | 8.0 | 16.1 | 0.00 | 0.00 | 0.00 | 34 | 1015.3 |
| 20260503175443 | 16 | 209 | 11.3 | 22.5 | 0.00 | 0.00 | 0.00 | 34 | 1015.3 |
| 20260503174939 | 16 | 197 | 9.7 | 14.5 | 0.00 | 0.00 | 0.00 | 34 | 1015.4 |
| 20260503174438 | 16 | 230 | 6.4 | 9.7 | 0.00 | 0.00 | 0.00 | 35 | 1015.3 |
| 20260503173938 | 16 | 314 | 9.7 | 24.1 | 0.00 | 0.00 | 0.00 | 34 | 1015.6 |
| 20260503173434 | 16 | 288 | 9.7 | 14.5 | 0.00 | 0.00 | 0.00 | 34 | 1015.7 |
| 20260503172931 | 16 | 224 | 9.7 | 20.9 | 0.00 | 0.00 | 0.00 | 32 | 1015.5 |
| 20260503172428 | 16 | 222 | 9.7 | 14.5 | 0.00 | 0.00 | 0.00 | 32 | 1015.7 |
| 20260503171924 | 16 | 291 | 9.7 | 33.8 | 0.00 | 0.00 | 0.00 | 33 | 1015.8 |
| 20260503171421 | 16 | 283 | 6.4 | 12.9 | 0.00 | 0.00 | 0.00 | 34 | 1015.9 |
| 20260503170919 | 16 | 260 | 6.4 | 12.9 | 0.00 | 0.00 | 0.00 | 33 | 1015.8 |
| 20260503170415 | 16 | 195 | 6.4 | 12.9 | 0.00 | 0.00 | 0.00 | 35 | 1015.9 |
| 20260503150807 | 13 | 264 | 1.6 | 12.9 | 0.00 | 0.00 | 0.00 | 46 | 1016.9 |
| 20260503150303 | 12 | 165 | 4.8 | 12.9 | 0.00 | 0.00 | 0.00 | 46 | 1016.8 |
| 20260503140228 | 11 | 179 | 9.7 | 14.5 | 0.00 | 0.00 | 0.00 | 50 | 1017.3 |
| 20260503131157 | 10 | 328 | 9.7 | 16.1 | 0.00 | 0.00 | 0.00 | 52 | 1017.4 |
| 20260503130654 | 9 | 191 | 3.2 | 9.7 | 0.00 | 0.00 | 0.00 | 53 | 1017.3 |
| 20260503130152 | 9 | 310 | 3.2 | 6.4 | 0.00 | 0.00 | 0.00 | 53 | 1017.6 |